To NAV CANADA Home Page Login to a new session Search on AWWS site Feedback and Comments Disclaimer Vers la page française équivalente Tips FAQ What's new on the site To the Forecasts and Observations / NOTAM section To "File a Flight Plan" website Publications and other links Update of the User's profile FIC Telephone Numbers My Weather Data Folder Route Weather Data Regional Weather Data Local Weather Data To the Forecasts and Observations / NOTAM section
Request Generated 12/10/2016 at 16:34:18 UTC . Weather information available at that time is displayed.

METAR/TAF

AUPALUK/QC    

LWIS CYLA 101600Z AUTO 30017G26KT M16/M19 A2992=
LWIS CYLA 101500Z AUTO 31020G26KT M15/M18 A2992=
LWIS CYLA 101400Z AUTO 30016G29KT M15/M18 A2992=

CYLA - No TAF is issued for this station

Your time UTC time
Weather data provided by Environment Canada and NAV CANADA